GEFSMA_con_prob3kmehi_204.txt.gz
EHI
2 3 2 0 0 0 0 0 1 1 1 2 2 1 2 3 6 7 6 7 6 4 2 0 0 0 0 0 0 0 0 0 0 0 0 0 0 0 0 0 0 0 0
3 4 2 1 0 0 0 0 0 1 1 1 1 2 2 4 6 7 7 6 5 4 2 1 1 1 0 0 0 0 0 0 0 0 0 0 0 0 0 0 0 0 0
4 4 3 2 1 1 0 0 0 1 0 0 1 2 4 5 6 7 7 7 6 4 3 3 2 2 1 1 1 0 0 0 0 0 0 0 0 0 0 0 0 0 0
6 6 5 4 3 2 1 0 1 1 0 0 1 2 5 6 6 6 7 9 10 7 4 3 4 4 3 2 2 2 1 1 0 0 0 0 0 0 0 0 0 0 0
8 7 7 5 3 2 1 1 2 1 0 0 0 1 4 6 8 8 8 9 13 12 7 5 5 5 4 4 4 4 4 3 2 2 1 1 1 1 1 0 0 0 0
12 10 7 4 2 1 1 2 3 2 1 1 1 1 3 9 13 14 11 10 13 14 12 11 9 5 3 5 7 8 8 6 6 5 4 3 3 3 2 1 0 0 0
17 13 8 6 4 3 3 3 4 4 3 3 3 1 3 10 15 17 14 12 13 13 15 19 17 10 6 5 7 10 11 10 9 8 7 6 6 5 4 3 1 0 0
19 14 11 11 9 9 8 8 8 7 6 6 6 4 4 6 9 12 14 14 15 16 15 19 24 21 14 7 6 8 10 10 9 8 8 7 7 6 5 4 1 0 0
18 15 14 14 14 13 13 14 12 9 7 6 7 7 5 3 3 6 11 15 18 17 12 12 21 26 22 14 10 7 6 7 8 8 7 7 6 5 4 3 1 0 0
21 20 19 20 17 14 15 16 13 11 10 8 6 7 8 5 4 4 6 11 16 14 9 7 13 23 24 20 15 9 5 4 7 8 6 5 5 5 4 3 2 1 1
27 24 25 27 23 18 16 17 18 16 13 11 8 8 9 9 7 4 3 5 8 9 7 7 9 17 22 21 16 10 5 3 4 6 5 4 4 4 3 2 2 2 2
33 29 30 34 33 27 24 25 26 24 20 16 15 14 12 10 8 6 2 1 2 4 6 9 10 13 16 17 13 8 6 3 2 2 2 1 2 2 2 1 1 2 2
38 36 36 41 41 36 31 31 33 32 30 27 22 19 15 11 8 7 3 1 0 1 4 7 9 9 9 12 10 6 6 4 1 0 0 0 1 1 1 1 1 1 1
36 40 44 45 45 40 35 34 36 38 38 36 29 23 19 15 11 9 7 4 2 1 1 3 6 7 9 10 7 5 5 4 1 0 0 0 0 0 1 1 0 0 0
33 41 46 45 44 42 39 38 38 41 43 40 33 28 23 18 14 11 11 11 7 3 0 1 4 8 11 10 6 5 6 4 1 0 0 0 0 0 0 0 0 0 0
37 43 46 46 45 45 47 45 41 42 44 41 34 29 24 20 16 15 15 16 13 7 3 2 5 9 10 9 7 9 11 8 3 0 0 0 0 0 0 0 0 0 0
48 49 49 47 47 48 51 50 42 39 40 39 33 26 22 21 19 18 17 18 17 13 6 4 7 10 10 9 11 14 14 10 5 1 0 0 0 0 0 0 0 0 0
56 56 53 48 46 47 49 47 41 34 33 34 31 25 21 20 20 20 18 17 17 13 8 5 7 11 9 8 12 14 10 7 5 2 0 0 0 0 0 0 0 0 0
56 57 55 49 45 43 43 41 38 32 29 29 27 23 19 18 19 20 18 15 13 11 7 4 5 7 5 5 9 9 7 5 4 2 1 0 0 0 0 0 0 0 0
54 54 53 50 44 39 36 36 35 32 29 27 24 21 19 17 17 16 15 12 11 8 5 3 2 2 2 3 5 6 5 5 4 3 2 1 0 0 0 0 0 0 0
51 49 48 45 39 33 29 29 30 30 29 26 23 19 17 15 12 11 9 8 8 7 5 4 2 1 2 1 2 3 4 4 4 4 3 3 2 1 1 1 0 0 0
49 46 42 38 33 27 21 18 21 25 26 24 21 18 15 12 9 7 5 4 4 4 4 3 3 3 3 2 1 1 2 2 2 3 4 4 4 4 3 2 0 0 0
47 44 39 34 30 24 17 10 9 17 22 22 21 19 16 12 9 6 3 2 2 2 2 2 3 3 3 3 1 0 1 1 1 2 3 3 3 4 3 1 0 0 0
44 41 36 33 29 23 14 5 3 9 17 20 20 19 16 12 7 5 3 2 2 2 1 1 2 2 2 2 1 0 0 0 1 1 1 1 1 1 1 0 0 0 0
38 35 33 31 27 21 13 4 2 7 13 17 17 14 11 9 5 2 2 3 3 1 1 1 1 1 1 1 1 0 0 0 0 0 1 1 0 0 0 0 0 0 0
32 32 31 29 26 20 13 5 3 7 12 15 14 11 7 5 3 1 2 4 3 1 0 1 1 1 0 0 0 0 0 0 0 0 0 1 0 0 0 0 0 0 0

GEFSMA_con_prob3kmehi_210.txt.gz
EHI
0 0 0 0 0 0 0 0 0 0 0 0 0 0 0 0 1 1 2 5 7 8 7 5 2 1 2 2 1 0 0 0 0 0 0 0 0 0 0 0 0 0 0
0 0 0 0 0 0 0 0 0 0 0 0 0 0 0 0 0 0 1 3 5 7 7 6 3 2 3 2 1 0 0 0 0 0 0 0 0 0 0 0 0 0 0
0 0 0 0 0 0 0 0 0 0 0 0 0 0 0 0 0 0 0 1 2 3 5 6 5 4 3 3 1 1 0 0 0 0 0 0 0 0 0 0 0 0 0
1 0 0 0 0 0 0 0 0 0 0 0 0 0 0 0 0 0 0 0 0 0 2 4 5 5 3 3 3 2 1 1 1 1 0 0 0 0 0 0 0 0 0
2 1 0 0 0 0 0 0 0 0 0 0 0 0 0 0 0 0 0 0 0 0 0 1 2 3 3 3 3 3 2 3 3 2 1 1 0 0 0 0 0 0 0
5 3 1 1 1 0 0 0 0 0 0 0 0 0 0 0 0 0 0 0 0 0 0 0 0 2 3 5 5 5 5 4 4 4 3 3 2 1 1 2 1 0 0
5 4 3 2 1 0 0 0 0 0 0 0 0 0 0 0 0 0 0 0 0 1 1 0 0 0 2 4 5 6 6 6 5 5 5 5 4 3 3 3 2 1 0
6 5 3 2 2 1 0 0 0 0 0 0 0 0 0 0 0 0 0 0 0 1 1 1 1 0 0 1 2 3 4 5 5 5 6 5 5 4 4 3 3 2 1
9 7 3 2 2 2 1 0 0 0 1 0 0 0 0 0 0 0 0 0 0 0 1 1 1 0 0 0 0 1 3 3 3 4 6 6 6 6 5 4 3 3 3
11 8 5 4 3 3 2 1 1 1 1 0 0 0 0 0 0 0 0 0 0 0 0 1 1 0 0 0 0 1 2 2 1 2 6 8 8 7 6 4 3 3 3
10 9 7 5 4 4 3 3 3 2 1 0 0 0 0 0 0 0 0 0 0 0 0 0 0 0 0 0 0 0 1 1 0 1 5 7 7 7 6 5 3 3 2
10 8 6 5 5 6 6 6 6 4 2 0 0 0 0 0 0 0 0 0 0 0 0 0 0 0 0 0 0 1 1 1 0 0 2 5 6 6 6 6 4 2 1
10 7 5 5 6 8 9 9 8 6 3 0 0 0 0 0 0 0 0 0 0 0 0 0 0 0 0 0 0 1 2 2 1 0 0 2 3 4 5 4 3 2 1
10 7 6 8 9 11 12 12 11 9 5 3 2 1 0 0 0 0 0 0 0 0 0 0 0 0 0 0 0 1 1 1 1 0 0 0 1 1 1 1 1 2 2
11 9 9 12 13 13 13 13 12 11 8 6 4 2 1 1 1 1 1 0 0 0 0 0 0 0 0 0 0 0 0 0 0 0 0 0 0 0 0 0 0 1 1
13 13 14 16 17 17 14 12 10 9 7 6 4 3 3 2 2 2 2 1 1 1 0 0 0 0 0 0 0 0 0 0 0 0 0 0 0 0 0 0 0 0 0
14 16 18 20 22 20 16 12 10 8 5 4 3 3 3 3 3 3 3 3 4 3 1 0 0 0 0 0 0 0 0 0 0 0 0 0 0 0 0 0 0 0 0
14 17 22 24 24 21 17 14 12 9 6 5 4 3 3 3 3 3 3 4 4 3 1 0 0 0 0 0 0 0 0 0 0 0 0 0 0 0 0 0 0 0 0
14 18 23 25 24 21 18 16 14 12 10 8 6 4 4 4 4 4 3 2 2 1 1 0 0 0 0 0 0 0 0 0 0 0 0 0 0 0 0 0 0 0 0
16 19 23 25 25 22 20 18 16 15 14 12 9 8 7 6 6 4 2 1 0 0 0 0 0 0 0 0 0 0 0 0 0 0 0 0 0 0 0 0 0 0 0
20 21 23 25 24 23 21 18 16 16 14 12 11 10 8 6 4 3 2 0 0 0 0 0 0 0 0 0 0 0 0 0 0 0 0 0 0 0 0 0 0 0 0
25 23 22 21 20 21 19 15 13 12 11 9 8 8 6 4 2 1 1 1 0 0 0 0 0 0 0 0 0 0 0 0 0 0 0 0 0 0 0 0 0 0 0
28 25 20 17 16 15 13 9 7 7 6 6 6 5 4 2 1 1 1 1 0 0 0 0 0 0 0 0 0 0 0 0 0 0 0 0 0 0 0 0 0 0 0
25 22 18 15 13 11 8 4 2 3 4 4 4 4 3 1 0 0 1 1 0 0 0 0 0 0 0 0 0 0 0 0 0 0 0 0 0 0 0 0 0 0 0
21 17 14 12 10 8 5 2 1 2 3 2 3 3 2 1 0 0 0 0 0 0 0 0 0 0 0 0 0 0 0 0 0 0 0 0 0 0 0 0 0 0 0
18 15 12 10 8 6 4 1 1 2 1 1 1 1 1 0 0 0 0 0 0 0 0 0 0 0 0 0 0 0 0 0 0 0 0 0 0 0 0 0 0 0 0

GEFSMA_con_prob3kmehi_216.txt.gz
EHI
0 0 0 0 0 0 0 0 0 0 0 0 0 0 0 0 0 0 0 0 1 2 2 1 0 0 0 0 0 0 0 0 0 0 0 0 0 0 0 0 0 0 0
0 0 0 0 0 0 0 0 0 0 0 0 0 0 0 0 0 0 0 0 0 1 1 1 0 0 0 0 0 0 0 0 0 0 0 0 0 0 0 0 0 0 0
0 0 0 0 0 0 0 0 0 0 0 0 0 0 0 0 0 0 0 0 0 0 0 0 0 0 0 0 0 0 0 0 0 0 0 0 0 0 0 0 0 0 0
0 0 0 0 0 0 0 0 0 0 0 0 0 0 0 0 0 0 0 0 0 0 0 0 1 1 0 0 0 0 0 0 0 0 0 0 0 0 0 0 0 0 0
0 0 0 0 0 0 0 0 0 0 0 0 0 0 0 0 0 0 0 0 0 0 0 0 1 2 1 2 1 1 0 0 0 0 0 0 0 0 0 0 0 0 0
0 0 0 0 0 0 0 0 0 0 0 0 0 0 0 0 0 0 0 0 0 0 0 0 1 1 2 3 4 3 2 1 0 0 0 0 0 0 0 0 0 0 0
0 0 0 0 0 1 0 0 0 0 0 0 0 0 0 0 0 0 0 0 0 0 0 0 0 0 1 2 4 5 4 3 1 0 0 0 0 0 0 0 0 0 0
0 0 0 0 0 0 0 0 0 0 0 0 0 0 0 0 0 0 0 0 0 0 0 0 0 0 0 0 1 3 5 5 3 2 2 1 1 0 0 0 0 0 0
0 0 0 0 0 0 0 0 0 0 0 0 0 0 0 0 0 0 0 0 0 0 0 0 0 0 0 0 0 1 3 4 5 4 4 3 3 2 1 0 0 0 0
0 0 0 0 0 0 0 1 1 1 0 0 0 0 0 0 0 0 0 0 0 0 0 0 0 0 0 0 0 0 1 2 3 5 6 6 6 5 3 2 1 1 1
0 0 1 1 1 1 1 1 2 2 1 0 0 0 0 0 0 0 0 0 0 0 0 0 0 0 0 0 0 0 0 0 1 3 5 6 5 5 4 4 4 3 2
1 1 1 1 1 1 2 3 3 3 2 1 1 0 0 0 0 0 0 0 0 0 0 0 0 0 0 0 0 0 0 0 0 0 2 3 2 2 2 4 3 3 2
2 2 1 1 1 1 2 2 3 3 3 3 1 0 0 0 0 0 0 0 0 0 0 0 0 0 0 0 0 0 0 0 0 0 0 0 0 0 0 1 1 1 1
3 2 2 1 0 0 1 1 1 3 4 3 1 0 0 0 0 0 0 0 0 0 0 0 0 0 0 0 0 0 0 0 0 0 0 0 0 0 0 0 0 0 0
2 1 1 0 1 1 1 0 0 1 2 1 0 0 0 0 0 0 0 0 0 0 1 1 0 0 0 0 0 0 0 0 0 0 0 0 0 0 0 0 0 0 0
2 2 1 2 2 2 1 1 0 0 0 0 0 0 0 0 0 0 0 0 0 0 1 1 0 0 0 0 0 0 0 0 0 0 0 0 0 0 0 0 0 0 0
3 3 4 5 4 2 2 2 1 0 0 0 0 0 0 0 0 0 0 0 0 0 1 1 0 0 0 0 0 0 0 0 0 0 0 0 0 0 0 0 0 0 0
5 5 7 7 5 3 2 2 1 0 0 0 0 0 0 0 0 0 0 0 0 0 0 0 0 0 0 0 0 0 0 0 0 0 0 0 0 0 0 0 0 0 0
6 6 7 7 6 4 3 1 0 1 1 0 0 0 0 1 1 1 1 0 0 1 1 0 0 1 1 0 0 0 0 0 0 0 0 0 0 0 0 0 0 0 0
7 6 6 6 5 4 2 1 1 2 2 1 1 0 1 2 3 2 1 1 1 1 1 0 0 1 1 0 0 0 0 0 0 0 0 0 0 0 0 0 0 0 0
6 6 6 5 4 3 2 2 3 4 3 2 1 1 1 2 2 2 1 1 1 1 0 0 0 1 1 0 0 0 0 0 0 0 0 0 0 0 0 0 0 0 0
5 6 6 5 4 3 1 1 2 4 4 2 1 0 1 1 1 1 0 1 1 0 0 0 0 0 0 0 0 0 0 0 0 0 0 0 0 0 0 0 0 0 0
7 7 6 4 4 2 1 0 1 2 3 2 1 1 1 0 0 0 0 0 0 0 0 0 0 0 0 0 0 0 0 0 0 0 0 0 0 0 0 0 0 0 0
9 9 7 5 3 2 1 0 0 1 2 2 2 2 2 1 0 0 0 1 1 0 0 0 0 0 0 0 0 0 0 0 0 0 0 0 0 0 0 0 0 0 0
12 11 10 8 4 2 1 0 0 1 2 3 3 3 2 1 0 0 0 1 1 0 0 0 0 0 0 0 0 0 0 0 0 0 0 0 0 0 0 0 0 0 0
12 13 13 10 6 3 2 1 1 2 2 3 3 3 1 0 0 0 0 1 0 0 0 0 0 0 0 0 0 0 0 0 0 0 0 0 0 0 0 0 0 0 0

GEFSMA_con_prob3kmehi_222.txt.gz
EHI
0 0 0 0 0 0 0 0 0 0 0 0 0 0 0 0 0 0 0 0 0 0 1 1 1 0 1 1 0 0 0 0 0 0 0 0 0 0 0 0 0 0 0
0 0 0 0 0 0 0 0 0 0 0 0 0 0 0 0 0 0 0 0 0 0 0 0 0 0 1 2 1 0 0 0 0 0 0 0 0 0 0 0 0 0 0
0 0 0 0 0 0 0 0 0 0 0 0 0 0 0 0 0 0 0 0 0 0 0 0 0 0 1 2 1 0 0 0 0 0 0 0 0 0 0 0 0 0 0
0 0 1 1 0 0 0 0 0 0 0 0 0 0 0 0 0 0 0 0 0 0 0 1 1 0 0 1 1 0 0 0 0 0 0 0 0 0 0 0 0 0 0
1 0 1 1 0 0 0 0 0 0 0 0 0 0 0 0 0 0 0 0 0 0 0 1 1 1 1 1 1 1 1 1 0 0 0 0 1 1 0 0 0 0 0
2 2 2 2 1 0 0 0 0 0 0 0 1 1 1 0 0 0 0 0 0 0 0 1 1 2 2 3 3 2 2 2 2 1 0 0 1 1 1 0 0 0 0
4 5 5 4 2 1 1 0 0 0 0 1 2 2 1 1 0 0 0 0 0 0 0 1 1 2 3 4 4 5 4 4 4 4 2 1 1 1 1 1 0 0 0
6 7 7 6 4 2 1 0 0 0 0 1 2 3 2 1 1 1 0 0 0 0 0 1 1 1 2 3 4 6 6 5 5 7 6 3 2 1 0 0 0 0 0
8 8 9 7 5 3 1 0 0 0 1 2 3 3 3 3 2 1 0 0 0 1 1 0 1 1 1 2 2 3 4 4 5 8 8 6 5 4 2 1 0 0 0
8 9 10 9 6 3 2 1 1 2 4 4 4 4 4 4 3 1 0 0 0 1 1 1 0 0 0 1 1 1 1 2 3 5 6 7 6 6 5 3 1 1 1
7 8 10 10 7 4 4 4 5 5 6 6 6 5 5 4 3 2 0 0 0 1 1 1 1 0 0 0 0 0 0 0 1 1 3 4 4 5 5 5 3 2 2
7 9 10 9 8 7 7 7 8 7 8 8 8 7 6 4 3 1 0 0 0 0 0 1 1 0 1 1 1 0 0 0 0 0 1 2 2 2 4 4 3 2 2
9 10 10 9 9 9 10 10 10 10 9 9 9 9 7 5 3 1 1 1 1 1 1 1 0 1 2 3 3 1 0 0 0 0 0 1 1 1 1 2 2 1 1
9 10 10 9 10 12 13 12 12 11 9 8 7 8 8 8 5 3 2 2 2 2 1 1 1 1 2 3 2 1 1 1 0 0 0 0 0 0 0 1 1 0 0
8 9 10 11 11 13 13 13 13 12 10 8 7 9 10 10 8 6 5 6 6 4 3 4 4 2 1 2 1 2 3 3 1 0 0 0 0 0 0 0 0 0 0
8 9 11 12 13 13 15 16 15 14 12 11 11 11 10 8 7 6 7 9 10 8 6 7 6 4 3 2 2 3 4 3 1 0 0 0 0 0 0 0 0 0 0
12 11 12 14 15 16 18 18 16 14 13 12 12 11 8 7 6 7 9 11 13 13 10 8 6 6 6 5 4 3 2 1 1 0 0 0 0 0 0 0 0 0 0
17 16 15 15 15 16 18 17 15 13 11 9 8 7 6 8 9 10 11 12 14 15 13 10 8 9 10 8 6 3 1 1 1 0 0 0 0 0 0 0 0 0 0
17 18 17 16 14 14 16 15 14 12 9 7 6 6 6 8 10 11 11 11 10 11 12 11 11 12 10 8 6 4 2 2 2 0 0 0 0 0 0 0 0 0 0
17 17 18 17 15 13 13 13 12 11 10 8 6 6 6 7 7 7 7 7 6 6 8 10 10 10 8 7 6 5 4 4 3 1 1 1 0 0 0 0 0 0 0
18 18 18 19 16 13 11 11 10 10 11 10 9 7 6 4 3 3 3 4 3 3 5 7 7 6 5 5 5 4 4 4 3 2 2 2 1 1 0 0 0 0 0
18 19 20 19 17 12 9 8 8 9 12 13 11 8 5 3 2 1 1 1 1 1 2 4 5 4 4 3 2 2 3 3 3 3 3 3 3 3 1 0 0 0 0
17 18 19 19 18 13 8 5 5 8 12 14 12 9 6 3 2 2 2 2 1 1 1 3 4 4 3 2 1 1 1 1 2 3 3 3 3 3 2 0 0 0 0
18 19 20 21 20 16 9 3 2 6 10 11 10 7 5 4 3 3 4 4 4 3 2 2 3 3 3 2 1 0 0 0 1 2 2 2 2 2 1 0 0 0 0
19 20 22 22 22 18 10 3 2 6 9 9 7 4 2 2 1 1 3 6 5 3 2 1 1 1 1 1 0 0 0 0 0 0 1 1 1 3 2 1 0 0 0
19 20 22 21 21 18 10 2 2 6 8 8 5 2 0 0 0 0 2 6 6 3 2 1 0 0 0 0 0 0 0 0 0 1 1 1 1 3 3 1 0 0 0

GEFSMA_con_prob3kmehi_228.txt.gz
EHI
0 1 2 2 1 0 0 1 2 2 2 1 1 2 3 2 1 4 6 7 7 4 1 0 0 0 0 0 0 0 0 0 0 0 0 0 0 0 0 0 0 0 0
2 2 2 2 1 0 1 2 3 5 4 2 1 3 5 4 3 5 7 8 9 7 4 3 2 1 0 0 0 0 0 0 0 0 0 0 0 0 0 0 0 0 0
5 4 3 3 2 3 5 5 5 5 4 2 2 3 5 5 5 6 8 10 11 10 9 8 7 5 3 2 1 1 0 0 0 0 0 0 0 0 0 0 0 0 0
7 7 5 4 5 7 9 7 6 4 2 2 2 4 5 7 7 7 8 12 15 14 13 12 12 11 9 7 6 5 4 3 2 1 1 0 0 0 0 0 0 0 0
11 10 9 8 8 11 10 8 7 6 5 4 3 4 7 10 11 9 8 11 16 18 17 16 15 15 15 14 12 10 10 9 7 5 3 1 1 1 0 0 0 0 0
14 14 13 13 12 12 11 10 8 9 9 8 5 5 8 13 15 12 8 8 12 16 18 19 18 17 17 16 16 15 14 12 11 9 5 3 2 2 1 1 1 0 0
18 16 16 18 17 15 15 13 11 10 10 9 8 9 11 14 16 15 10 8 9 12 15 20 22 20 17 16 15 16 16 14 13 11 8 5 4 3 3 2 2 1 0
21 19 19 20 20 20 21 20 15 12 10 9 8 9 11 14 14 14 14 13 13 14 14 19 24 25 21 17 14 15 17 17 15 13 10 7 5 4 3 3 2 1 0
24 23 22 22 21 21 23 23 19 15 13 11 10 10 11 11 11 12 12 14 18 18 14 14 20 25 25 22 17 14 15 16 15 13 11 9 6 4 3 1 1 0 0
25 25 25 25 23 20 20 20 18 17 16 14 12 12 12 11 10 8 7 9 14 16 11 8 11 19 24 24 21 17 13 10 9 10 10 8 6 4 3 2 1 0 0
27 27 29 30 27 23 20 18 18 19 19 16 13 11 11 11 11 8 4 3 6 8 8 6 8 14 20 21 20 17 13 7 4 5 6 6 5 4 4 3 3 2 1
29 30 34 35 31 26 23 22 21 22 22 18 14 11 9 10 10 8 4 1 2 4 8 10 11 14 16 17 16 14 11 6 2 2 3 4 4 4 4 4 4 3 2
29 33 38 40 36 29 26 26 25 23 23 18 13 11 10 10 10 9 5 1 1 3 9 13 14 14 13 13 11 9 8 5 2 1 1 2 2 3 3 4 3 3 2
29 36 41 42 39 32 28 28 26 22 18 15 12 12 12 12 12 11 8 3 1 3 6 9 12 14 13 11 9 6 5 3 0 0 0 1 1 1 2 2 2 1 1
30 38 43 41 38 33 28 29 30 26 21 17 16 14 14 15 14 12 10 7 4 3 4 5 9 12 12 10 7 6 5 2 0 0 0 0 0 0 1 1 1 0 0
33 39 43 43 39 34 31 33 35 33 30 26 22 18 17 17 15 11 10 9 7 5 3 5 9 12 12 8 6 7 7 3 1 0 0 0 0 0 0 0 0 0 0
36 39 43 45 42 37 35 36 35 34 33 31 25 20 18 17 15 11 9 9 8 6 5 6 9 12 11 8 7 8 6 2 1 0 0 0 0 0 0 0 0 0 0
40 40 43 44 41 38 37 37 33 31 29 29 26 23 19 16 14 12 10 9 8 9 9 8 8 10 9 7 6 6 4 2 1 0 0 0 0 0 0 0 0 0 0
42 42 42 41 38 35 35 35 32 28 27 27 27 25 22 19 17 15 13 11 11 11 12 11 10 10 7 4 5 4 3 1 0 0 0 0 0 0 0 0 0 0 0
41 41 41 39 35 32 31 31 30 29 29 29 27 24 23 21 18 15 12 11 11 12 12 12 11 10 7 5 5 3 1 1 0 0 0 0 0 0 0 0 0 0 0
40 41 40 38 34 29 24 24 27 30 31 30 27 23 19 16 13 9 7 7 8 10 11 11 10 9 7 6 5 3 1 1 0 1 1 0 0 0 0 0 0 0 0
37 37 36 35 33 26 18 16 22 27 28 28 27 23 16 10 8 6 4 3 4 6 8 9 8 8 7 6 5 3 2 2 1 2 2 1 0 0 0 0 0 0 0
33 33 32 33 32 25 14 10 13 19 22 24 26 22 14 8 6 6 5 3 2 3 4 5 5 6 6 5 3 2 2 2 2 2 2 1 0 0 0 0 0 0 0
31 32 33 33 30 22 13 8 8 13 18 20 22 20 14 7 5 6 6 5 5 4 3 3 3 4 4 3 2 2 1 2 2 2 1 0 0 0 0 0 0 0 0
30 31 32 31 26 18 12 6 7 12 16 17 18 17 12 7 3 4 5 6 7 6 4 3 2 3 3 2 2 1 2 3 2 1 0 0 0 0 0 0 0 0 0
29 29 29 27 23 17 10 5 6 12 15 16 16 14 8 4 2 3 4 5 7 7 6 3 1 2 2 2 1 1 2 3 2 1 0 0 0 0 0 0 0 0 0

GEFSMA_con_prob3kmehi_234.txt.gz
EHI
0 0 0 0 0 0 0 0 0 0 0 0 0 0 0 0 0 0 2 7 13 13 11 7 4 1 0 0 0 0 0 0 0 0 0 0 0 0 0 0 0 0 0
0 0 0 0 0 0 0 0 0 0 0 0 0 0 0 0 0 0 1 4 11 14 14 10 7 4 2 1 1 1 1 0 0 0 0 0 0 0 0 0 0 0 0
1 0 0 0 0 0 0 0 0 0 0 0 0 0 0 0 0 0 0 1 5 11 12 12 10 8 6 5 4 3 3 1 1 0 0 0 0 0 0 0 0 0 0
2 1 0 0 0 0 0 0 0 0 0 0 0 0 0 0 0 0 0 0 1 4 6 9 11 11 11 10 9 8 7 5 3 1 0 0 0 0 0 0 0 0 0
3 2 2 2 1 1 0 0 0 0 0 0 0 0 0 0 0 0 0 0 0 0 1 4 8 11 12 13 14 13 12 10 8 5 2 1 0 0 0 0 0 0 0
4 3 3 3 3 2 1 0 0 0 0 0 0 0 0 0 0 0 0 0 0 0 0 1 3 7 10 13 14 14 14 14 12 9 6 4 1 0 0 0 0 0 0
5 4 3 3 3 2 1 0 0 0 0 0 0 0 0 0 0 0 0 0 0 1 1 0 1 2 5 7 9 12 14 14 13 12 10 7 4 2 0 0 0 0 0
7 7 5 4 4 3 2 0 0 1 1 1 1 0 0 0 0 0 0 0 0 0 1 1 1 1 2 3 4 7 11 13 12 12 11 9 7 4 2 1 0 0 0
10 9 8 7 7 6 5 3 2 2 3 3 1 0 0 0 0 0 0 0 0 0 0 0 1 1 2 2 2 4 8 11 11 11 10 9 6 4 2 2 1 0 0
11 11 11 11 10 9 8 6 4 3 4 3 2 0 0 0 0 0 0 0 0 0 0 0 0 1 2 3 3 3 5 6 8 10 9 7 4 3 2 2 1 0 0
12 13 13 13 11 10 8 7 5 4 3 3 2 1 1 0 0 0 0 0 0 0 0 0 0 0 1 2 2 2 2 2 3 5 6 5 3 3 2 2 1 0 0
11 12 13 13 12 10 8 7 6 4 3 3 3 3 2 1 0 0 0 0 0 0 0 0 0 0 0 1 1 1 1 1 0 1 2 2 2 3 3 3 2 1 1
7 9 12 14 13 12 9 7 5 3 2 2 2 2 2 1 1 1 1 1 1 1 0 0 0 0 0 0 0 0 0 0 0 0 0 1 1 1 2 3 3 3 2
5 7 10 13 14 13 10 7 4 2 2 1 1 1 1 1 2 2 2 2 2 1 0 0 0 0 0 0 0 0 0 0 0 0 0 1 0 0 1 2 2 3 3
5 7 10 12 13 12 11 8 5 3 2 2 1 1 1 1 3 3 3 3 3 2 1 0 0 0 0 0 0 0 0 0 0 0 0 0 0 0 0 1 1 1 2
7 9 10 11 12 12 11 9 6 4 3 4 3 3 2 3 3 3 3 3 3 2 1 0 0 0 0 0 0 0 0 0 0 0 0 0 0 0 0 0 0 0 1
9 9 10 11 12 12 10 7 5 4 4 5 5 4 3 2 2 3 3 3 3 1 1 0 0 0 0 0 0 0 0 0 0 0 0 0 0 0 0 0 0 0 0
11 9 8 10 12 11 10 8 6 5 7 7 7 4 2 1 1 1 2 2 2 1 0 0 0 0 0 0 0 0 0 0 0 0 0 0 0 0 0 0 0 0 0
15 12 10 12 12 11 11 9 8 8 9 10 8 5 3 2 1 0 1 1 1 0 0 0 0 0 0 0 0 0 0 0 0 0 0 0 0 0 0 0 0 0 0
20 18 15 15 14 12 12 11 9 8 9 10 8 5 5 4 2 0 0 0 0 0 0 0 0 0 0 0 0 0 0 0 0 0 0 0 0 0 0 0 0 0 0
21 20 19 17 15 13 11 10 9 7 7 6 5 5 5 4 2 0 0 0 0 0 0 0 1 1 1 0 0 0 0 0 0 0 0 0 0 0 0 0 0 0 0
20 18 18 17 14 11 8 7 7 6 4 4 4 5 4 3 1 1 1 1 0 0 0 1 2 2 2 1 0 0 0 0 0 0 0 0 0 0 0 0 0 0 0
20 18 17 16 14 10 6 4 4 4 4 4 4 5 4 2 1 2 2 1 0 0 0 2 3 3 3 1 0 0 0 0 0 0 0 0 0 0 0 0 0 0 0
20 17 15 13 11 8 5 3 4 4 5 5 6 6 6 4 2 2 2 1 0 0 0 1 2 3 3 2 1 0 0 0 0 0 0 0 0 0 0 0 0 0 0
18 16 14 11 8 6 4 3 3 4 4 5 6 6 5 4 2 2 2 2 1 0 1 1 1 2 3 2 1 0 0 0 0 0 0 0 0 0 0 0 0 0 0
18 17 13 10 7 5 3 3 3 3 4 4 6 6 4 2 2 2 2 2 1 1 2 2 1 1 2 2 1 0 0 0 0 0 0 0 0 0 0 0 0 0 0

GEFSMA_con_prob3kmehi_240.txt.gz
EHI
0 0 0 0 0 0 0 0 0 0 0 0 0 0 0 0 0 0 0 1 2 3 3 3 4 5 4 2 1 0 0 0 0 0 0 0 0 0 0 0 0 0 0
0 0 0 0 0 0 0 0 0 0 0 0 0 0 0 0 0 0 0 0 1 2 3 4 4 4 4 4 3 2 1 0 0 0 0 0 0 0 0 0 0 0 0
0 0 0 0 0 0 0 0 0 0 0 0 0 0 0 0 0 0 0 0 0 1 3 4 5 5 5 6 5 4 2 2 2 1 1 1 1 0 0 0 0 0 0
0 0 0 0 0 0 0 0 0 0 0 0 0 0 0 0 0 0 0 0 0 0 1 3 4 5 6 7 6 4 4 4 4 2 2 2 1 0 0 0 0 0 0
0 0 0 0 0 0 0 0 0 0 0 0 0 0 0 0 0 0 0 0 0 0 0 1 2 3 4 4 4 4 4 4 4 2 1 1 1 0 0 0 0 0 0
0 0 0 0 0 0 0 0 0 0 0 0 0 0 0 0 0 0 0 0 0 0 0 0 1 1 1 2 3 3 4 5 4 3 2 1 1 1 0 0 0 0 0
1 1 1 1 1 1 1 0 0 0 0 0 0 0 0 0 0 0 0 0 0 0 0 0 0 0 0 1 1 2 3 5 5 4 3 3 4 3 1 0 0 0 0
2 2 2 2 2 2 2 1 1 1 0 0 0 0 0 0 0 0 0 0 0 0 0 0 0 0 0 0 0 1 2 3 5 5 5 6 6 5 2 0 0 0 0
3 3 4 5 5 4 4 3 3 2 1 0 0 0 0 0 0 0 0 0 0 0 0 0 0 0 0 0 0 0 1 1 2 3 5 7 7 5 2 0 0 0 0
3 4 5 6 6 6 5 5 5 3 1 0 0 0 0 0 0 0 0 0 0 0 0 0 0 0 0 0 0 0 0 0 0 1 3 4 5 5 3 1 0 0 0
3 3 3 4 5 4 4 5 6 4 1 0 0 0 0 0 0 0 0 0 0 0 0 0 0 0 0 0 0 0 0 0 0 0 1 1 2 4 3 2 1 0 0
2 1 1 1 2 3 3 4 5 4 1 0 0 0 0 0 0 0 0 0 0 0 1 1 0 0 0 0 0 0 0 0 0 0 0 0 0 1 2 2 1 0 0
2 1 0 1 2 3 3 4 4 3 1 0 0 0 0 0 0 0 0 0 0 1 2 2 1 0 0 0 0 0 0 0 0 0 0 0 0 0 0 0 0 0 0
4 2 2 2 3 3 3 4 3 2 1 0 0 0 0 0 0 0 0 1 1 2 3 3 2 1 0 0 0 0 0 0 0 0 0 0 0 0 0 0 0 0 0
6 5 4 3 2 3 3 3 2 1 0 0 0 0 0 0 0 0 1 2 3 3 3 3 2 1 0 0 0 0 0 0 0 0 0 0 0 0 0 0 0 0 0
7 7 6 5 4 3 2 1 1 0 0 0 0 1 1 1 1 1 2 3 3 3 3 3 2 1 0 0 0 0 0 0 0 0 0 0 0 0 0 0 0 0 0
7 7 8 6 6 4 2 0 0 1 1 1 2 4 4 3 1 1 2 2 3 3 3 2 1 0 0 0 0 0 0 0 0 0 0 0 0 0 0 0 0 0 0
5 6 8 7 6 4 1 0 1 2 3 3 4 6 6 4 2 1 1 2 2 2 1 1 0 0 0 0 0 0 0 0 0 0 0 0 0 0 0 0 0 0 0
4 5 7 7 5 3 1 0 2 3 4 5 6 6 6 5 4 2 1 1 1 1 0 0 0 0 0 0 0 0 0 0 0 0 0 0 0 0 0 0 0 0 0
4 6 7 6 4 1 0 0 2 3 4 5 5 5 5 5 4 3 3 2 0 0 0 0 0 0 0 0 0 0 0 0 0 0 0 0 0 0 0 0 0 0 0
5 7 7 5 3 1 0 0 1 2 3 3 3 3 4 4 4 3 3 1 0 0 1 1 0 0 0 1 1 0 0 0 0 0 0 0 0 0 0 0 0 0 0
7 9 9 7 4 1 0 0 1 1 2 2 2 3 3 4 3 3 2 0 0 0 1 2 1 1 1 2 2 1 0 0 0 0 0 0 0 0 0 0 0 0 0
12 13 13 10 5 2 1 1 0 0 1 2 2 3 3 3 3 2 1 0 1 1 1 1 1 2 3 3 3 1 1 0 0 0 0 0 0 0 0 0 0 0 0
17 17 16 12 7 3 2 1 0 0 1 2 3 3 3 3 1 1 0 0 1 2 1 0 1 2 2 3 3 3 2 1 0 0 0 0 0 0 0 0 0 0 0
19 18 15 11 8 5 2 0 0 1 2 3 3 3 2 2 1 0 0 0 1 2 1 1 0 1 1 1 2 3 3 1 1 0 0 0 0 0 0 0 0 0 0
17 15 12 9 8 6 3 1 1 2 3 3 3 2 1 1 0 0 0 0 0 1 2 2 1 0 0 0 1 3 3 2 2 1 0 0 0 0 0 0 0 0 0

GEFSMA_con_prob3kmehi_246.txt.gz
EHI
0 0 1 1 0 0 0 0 0 0 1 2 1 0 0 0 0 0 1 1 1 0 0 0 0 0 0 0 0 0 0 0 0 0 0 0 0 0 0 0 0 0 0
0 1 2 2 1 1 1 1 1 1 2 3 2 1 0 0 0 0 0 0 0 0 0 0 0 0 1 1 0 0 0 0 0 0 0 0 0 0 0 0 0 0 0
1 2 3 3 3 2 3 3 3 3 3 3 3 2 1 0 0 0 0 0 0 1 1 1 0 0 1 2 1 0 0 0 0 0 0 0 1 1 0 0 0 0 0
3 3 3 4 4 4 4 5 6 5 3 2 3 3 2 1 1 0 0 0 1 2 2 1 0 0 1 2 2 1 1 1 1 0 0 0 1 1 1 0 0 0 0
5 4 4 4 5 5 5 6 7 6 4 2 2 3 4 3 3 1 0 0 1 2 2 1 1 0 1 2 3 2 2 2 1 1 1 0 1 1 1 1 0 0 0
5 5 4 4 5 6 6 6 7 6 5 3 2 2 4 5 5 4 2 2 2 2 1 0 0 0 0 1 2 1 1 1 1 1 1 1 1 0 0 0 0 0 0
4 4 3 4 5 7 7 8 7 7 7 6 4 3 3 4 6 7 5 4 3 2 0 0 1 1 0 0 0 0 0 0 0 1 1 2 2 1 0 0 0 0 0
4 4 4 5 7 8 9 9 9 8 8 8 6 4 2 3 6 7 6 5 4 2 1 1 2 3 2 2 1 0 0 0 0 0 0 1 1 1 0 0 0 0 0
5 5 6 6 7 8 8 8 7 7 9 9 9 6 4 3 5 6 5 5 5 5 3 2 3 3 4 5 4 1 0 0 0 0 0 1 1 1 2 1 0 0 0
6 6 6 6 5 4 5 4 3 5 9 10 9 7 5 4 5 6 6 6 6 6 5 3 3 4 5 6 4 1 0 0 0 0 0 1 1 2 3 2 1 0 0
6 6 6 6 3 2 2 1 2 4 8 10 9 6 3 3 4 5 5 5 6 6 6 4 4 5 5 4 3 1 1 0 0 0 0 0 0 1 2 3 3 1 1
6 7 7 7 5 3 2 2 4 5 6 8 8 5 2 1 2 3 3 4 5 6 6 6 6 5 4 3 2 1 1 0 0 0 0 0 0 0 1 2 3 2 2
8 8 9 8 7 6 4 5 6 6 5 6 5 4 2 1 2 3 4 4 5 6 7 8 7 5 3 2 1 1 1 0 0 0 0 0 0 0 0 1 1 1 1
8 8 9 9 9 8 7 8 8 7 6 6 4 2 2 3 4 5 6 6 6 7 8 9 9 6 3 2 0 0 0 0 0 0 0 0 0 0 0 0 0 0 0
7 7 8 9 10 9 10 11 10 8 8 7 5 4 5 6 6 7 8 10 10 9 9 10 11 8 5 2 0 0 1 0 0 0 0 0 0 0 0 0 0 0 0
7 7 8 10 10 11 13 14 12 9 8 7 5 6 8 8 7 8 10 13 14 13 11 11 12 10 6 2 0 0 0 0 0 0 0 0 0 0 0 0 0 0 0
9 8 9 10 11 12 14 15 12 9 8 7 5 7 9 9 9 11 12 14 16 14 11 11 11 9 5 1 0 0 0 0 0 0 0 0 0 0 0 0 0 0 0
9 7 8 10 11 12 14 13 10 9 8 6 5 8 9 11 13 14 14 14 14 13 11 11 10 7 4 1 1 1 1 0 0 0 0 0 0 0 0 0 0 0 0
7 7 8 10 11 12 14 13 12 10 8 5 6 10 11 14 16 17 16 15 14 13 12 11 9 7 4 2 2 3 2 1 1 0 0 0 0 0 0 0 0 0 0
8 9 11 12 12 13 14 15 14 11 7 4 6 10 12 14 15 16 16 16 15 13 12 11 9 7 5 4 4 3 3 2 2 1 1 1 1 0 0 0 0 0 0
12 14 15 15 15 15 14 14 14 11 9 7 8 10 11 12 12 11 11 11 12 12 12 11 9 8 7 6 4 3 3 4 4 4 3 3 2 1 0 0 0 0 0
18 19 19 19 18 16 13 10 9 10 11 12 12 12 12 11 10 7 6 6 6 7 9 10 9 9 8 6 4 3 4 6 7 6 6 5 3 2 1 0 0 0 0
25 24 24 23 22 18 12 6 4 7 12 15 16 15 14 12 10 7 6 5 4 3 4 7 8 9 8 6 4 4 5 7 7 7 7 6 5 4 2 1 0 0 0
30 30 30 30 28 21 11 3 2 6 12 15 16 16 15 13 10 8 8 8 5 2 1 3 5 6 5 5 4 4 4 5 5 6 6 6 6 4 3 2 1 0 0
30 30 30 31 30 21 10 2 3 8 12 13 13 13 13 11 8 6 8 8 6 3 1 1 1 2 2 2 2 3 3 3 4 5 5 5 5 4 4 3 2 0 0
27 27 27 29 28 20 8 2 3 10 12 11 10 10 10 8 5 4 7 8 6 4 3 1 0 0 0 0 1 2 3 3 4 5 5 5 4 4 4 3 2 1 0

GEFSMA_con_prob3kmehi_252.txt.gz
EHI
12 11 10 12 12 11 11 12 13 14 13 11 10 9 7 5 6 6 9 13 16 17 16 13 11 8 5 4 4 3 3 3 3 3 3 3 3 3 3 2 3 3 3
12 12 11 12 11 10 11 13 15 16 15 12 11 11 9 6 6 7 9 11 12 13 14 14 13 10 7 6 4 3 3 3 3 3 3 3 3 3 3 3 3 3 3
12 12 12 13 12 12 13 15 17 18 16 13 13 13 11 9 7 8 10 10 9 9 12 14 14 12 9 6 4 4 4 3 3 3 3 3 2 2 3 3 3 3 3
13 12 11 12 14 15 16 17 17 16 16 16 16 15 14 14 11 11 12 13 11 10 11 13 14 13 9 4 2 3 3 3 3 3 3 2 1 1 1 2 3 3 3
16 14 13 14 16 16 16 15 15 16 18 18 18 17 17 18 18 16 14 15 17 17 14 14 14 12 7 4 2 2 2 3 3 3 1 1 0 0 0 1 2 2 2
18 16 16 18 18 16 15 13 13 17 20 19 17 16 17 21 23 21 18 18 21 22 18 17 15 11 7 4 4 3 3 3 3 3 2 1 1 0 0 0 0 1 2
17 16 16 18 18 16 14 14 15 18 20 18 15 13 14 19 22 23 21 20 20 20 19 20 19 14 8 5 5 5 5 4 4 4 4 3 2 1 0 0 0 0 1
14 14 14 16 17 17 16 17 19 18 17 15 11 9 10 14 18 19 20 20 19 18 18 20 22 20 12 6 4 5 6 7 6 6 6 4 3 1 0 0 0 0 0
15 14 14 16 17 17 17 19 21 19 16 14 10 8 8 11 13 14 16 19 19 17 15 16 21 23 16 8 5 5 6 8 9 8 7 5 3 1 0 0 0 0 0
17 16 16 17 17 16 15 16 17 18 17 14 11 9 9 10 12 13 14 17 18 16 14 14 18 22 19 13 9 7 5 5 7 7 6 5 2 0 0 0 0 0 0
20 20 20 21 19 15 13 13 14 15 15 12 9 8 9 10 11 12 14 14 15 15 15 15 17 19 18 16 12 7 3 2 2 3 3 3 2 0 0 0 0 0 0
21 21 23 25 23 17 15 14 13 13 12 11 9 8 9 9 10 12 14 14 12 12 15 16 15 13 14 14 11 5 2 1 0 0 1 1 1 0 0 0 0 0 0
19 21 23 25 24 20 18 17 16 15 15 14 12 11 10 10 11 13 15 14 11 10 12 15 14 11 12 13 9 4 2 1 0 0 0 0 0 0 0 0 0 0 0
16 18 22 24 24 21 19 20 19 18 20 21 18 15 14 15 15 15 17 15 11 8 10 13 14 14 15 14 8 3 1 1 0 0 0 0 0 0 0 0 0 0 0
15 19 22 23 22 20 19 21 21 21 24 26 24 21 21 20 18 18 18 16 12 9 9 11 13 14 15 12 6 4 4 1 0 0 0 0 0 0 0 0 0 0 0
19 22 24 23 21 19 19 21 23 23 25 27 27 26 26 25 22 19 18 17 16 14 12 11 11 11 10 9 7 9 8 4 0 0 0 0 0 0 0 0 0 0 0
22 24 26 25 24 23 23 24 25 25 24 26 27 27 26 25 23 20 17 17 18 17 15 12 10 9 9 8 7 9 10 6 2 0 0 0 0 0 0 0 0 0 0
22 23 26 28 28 27 27 28 29 27 24 24 25 24 22 21 21 20 19 18 18 17 15 12 11 11 11 9 6 6 7 5 3 1 0 0 0 0 0 0 0 0 0
24 25 27 30 31 30 30 31 31 29 27 26 25 23 21 21 21 21 20 19 17 15 14 12 11 11 10 8 6 4 4 3 2 2 1 0 0 0 0 0 0 0 0
29 30 30 31 32 31 30 30 30 30 29 28 27 25 22 21 20 20 19 19 17 14 12 10 10 9 7 6 4 3 2 2 2 2 1 0 0 0 0 0 0 0 0
33 34 34 33 32 30 28 27 27 27 27 27 26 24 21 19 17 16 15 15 16 15 12 9 8 8 7 5 3 1 1 1 2 3 2 1 1 1 0 0 0 0 0
37 37 36 34 32 28 23 20 21 23 24 24 23 21 19 16 13 11 10 9 10 11 10 7 6 7 8 7 4 1 0 1 2 3 3 3 2 2 1 1 0 0 0
39 38 36 34 31 26 20 15 14 18 22 23 22 19 17 14 12 11 9 8 7 7 6 4 3 4 6 8 5 1 0 1 1 2 3 3 3 3 3 2 1 0 0
38 38 36 34 31 25 18 11 12 18 22 23 22 19 18 15 12 11 12 12 10 8 5 2 1 2 3 5 3 1 0 0 0 1 2 2 3 3 4 4 2 1 0
38 38 37 35 33 27 16 8 12 20 23 22 21 20 18 14 10 9 11 14 13 11 7 3 0 0 1 2 2 0 0 0 0 0 1 1 1 2 3 4 3 1 0
39 38 37 37 36 29 16 8 12 21 23 21 21 18 15 12 8 6 10 13 13 11 8 4 1 0 0 1 1 0 0 0 0 0 0 0 0 1 3 3 3 2 1

GEFSMA_con_prob3kmehi_258.txt.gz
EHI
3 3 3 3 1 0 0 1 1 0 0 1 1 1 0 0 0 0 1 6 12 13 9 5 3 1 0 0 0 0 0 0 0 0 0 0 0 0 0 0 0 0 0
2 2 2 2 1 0 0 1 1 0 0 1 1 1 0 0 0 0 0 3 7 9 8 6 4 2 0 0 0 0 0 0 0 0 0 0 0 0 0 0 0 0 0
2 2 1 1 1 0 0 1 1 0 0 0 0 0 0 0 1 0 0 1 2 3 6 8 8 4 1 0 0 0 0 0 0 0 0 0 0 0 0 0 0 0 0
2 2 2 1 0 0 0 0 0 0 0 0 0 0 0 0 0 0 0 0 0 0 4 9 10 6 1 0 0 0 0 0 0 0 0 0 0 0 0 0 0 0 0
4 3 3 1 1 0 0 0 1 1 1 0 0 0 0 0 0 0 0 0 0 0 1 5 7 5 1 1 1 1 0 0 0 0 0 0 0 0 0 0 0 0 0
6 5 4 3 3 1 0 0 1 2 1 0 0 0 0 0 0 0 0 0 0 0 0 1 2 2 1 2 3 2 1 1 1 1 1 1 1 1 0 0 0 0 0
9 8 6 5 4 2 1 0 1 1 1 0 0 0 0 0 0 0 0 1 1 1 1 1 0 0 0 1 2 2 3 3 2 2 2 2 2 2 1 1 1 0 0
11 9 7 5 4 3 1 0 0 0 0 0 0 0 0 0 0 0 0 1 2 2 2 2 2 2 1 0 1 2 4 4 4 3 3 3 3 2 2 2 1 0 0
11 9 6 4 3 3 1 0 0 0 0 0 0 0 0 0 0 0 0 1 2 3 3 4 5 4 2 1 1 2 3 4 5 5 4 4 2 1 1 1 1 0 0
8 7 5 3 3 3 2 1 0 1 2 2 2 1 0 0 0 0 0 0 1 2 3 4 5 4 2 2 2 2 2 2 4 6 5 4 2 0 0 0 0 0 0
5 4 4 3 3 3 2 1 1 2 3 3 3 2 1 0 0 0 0 0 0 1 2 3 4 3 2 2 3 3 2 1 2 4 4 3 1 1 1 0 0 0 0
4 4 4 3 2 1 1 0 1 2 3 3 3 2 1 0 0 0 0 0 0 0 1 2 3 3 2 2 3 3 2 1 0 1 1 1 1 1 2 1 0 0 0
3 4 3 1 1 0 1 1 1 2 2 2 1 1 0 0 0 1 1 0 0 0 0 1 2 4 4 3 2 2 2 1 0 0 0 0 0 1 2 2 1 0 0
2 1 1 0 0 1 3 3 3 3 3 2 1 0 0 0 0 1 2 1 1 1 0 0 1 2 2 1 1 1 1 0 0 0 0 0 0 0 1 1 1 0 0
2 1 1 1 1 3 5 5 4 3 3 2 1 1 1 0 0 1 2 3 3 2 1 0 0 1 1 0 0 0 0 0 0 0 0 0 0 0 0 0 0 0 0
3 3 3 3 4 5 6 5 3 2 2 1 2 2 1 0 0 0 2 4 4 3 2 1 0 1 1 0 0 0 0 0 0 0 0 0 0 0 0 0 0 0 0
5 5 4 5 6 7 6 5 3 2 2 2 3 4 3 1 0 0 2 4 6 5 3 1 0 1 1 0 0 0 0 0 0 0 0 0 0 0 0 0 0 0 0
5 6 6 7 9 9 7 6 5 4 4 5 5 6 5 3 1 1 3 5 7 7 5 2 0 0 0 0 0 0 0 0 0 0 0 0 0 0 0 0 0 0 0
7 8 9 11 12 10 9 8 7 7 7 8 8 8 8 7 6 5 6 7 8 8 7 4 1 1 0 0 0 0 0 0 0 0 0 0 0 0 0 0 0 0 0
9 10 12 14 13 12 11 10 10 10 10 11 12 12 12 11 10 10 9 10 9 7 5 4 2 1 0 0 0 0 0 0 0 0 0 0 0 0 0 0 0 0 0
10 11 12 12 12 10 10 11 12 11 11 11 13 14 14 12 10 10 10 10 9 6 3 2 2 1 1 0 0 0 0 0 0 0 0 0 0 0 0 0 0 0 0
11 11 11 11 10 9 8 9 10 10 10 10 10 11 11 10 8 7 6 5 5 4 2 2 2 2 2 1 0 0 0 0 0 0 0 0 0 0 0 0 0 0 0
12 12 11 10 10 9 8 6 6 7 9 8 7 8 9 8 7 5 3 1 1 1 1 1 2 2 2 1 0 0 0 0 0 0 0 0 0 0 0 0 0 0 0
13 13 12 11 11 9 6 3 3 6 9 8 6 6 8 7 6 4 2 0 0 0 1 1 1 1 1 1 0 0 0 0 0 0 0 0 0 0 0 0 0 0 0
15 14 13 12 11 8 5 1 2 7 9 7 5 5 6 5 3 2 1 0 0 0 0 0 0 0 0 0 0 0 0 0 0 0 0 0 0 0 0 0 0 0 0
16 14 13 12 11 8 5 1 2 7 7 4 3 4 4 2 1 0 0 0 0 0 0 0 0 0 0 0 0 0 0 0 0 0 0 0 0 0 0 0 0 0 0

GEFSMA_con_prob3kmehi_264.txt.gz
EHI
0 0 0 0 0 0 0 0 0 0 0 0 0 0 0 0 0 0 0 0 1 2 2 1 1 1 0 0 0 0 0 0 0 0 0 0 0 0 0 0 0 0 0
0 0 0 0 0 0 0 0 0 0 0 0 0 0 0 0 0 0 0 0 1 2 2 1 1 2 1 1 1 0 0 0 0 0 0 0 0 0 0 0 0 0 0
0 0 0 0 0 0 0 0 0 0 1 1 0 0 0 0 0 0 0 0 1 1 2 2 2 2 3 2 2 1 1 1 0 0 0 0 0 0 0 0 0 0 0
1 0 0 0 0 0 1 1 1 1 1 0 0 0 0 0 0 0 0 0 0 0 1 3 4 3 4 3 3 3 2 1 0 0 0 0 0 0 0 0 0 0 0
2 1 0 0 0 1 2 2 2 1 0 0 0 0 0 0 0 0 0 0 0 0 1 2 3 3 4 4 3 3 2 1 0 0 0 0 0 0 0 0 0 0 0
4 4 2 1 1 2 2 2 1 0 0 0 0 0 0 0 0 0 0 0 0 0 0 0 1 2 3 3 2 1 1 0 0 0 0 0 0 0 0 0 0 0 0
4 5 4 2 2 3 2 1 0 0 0 0 0 0 0 0 0 0 0 0 0 0 0 0 0 0 1 1 1 0 0 0 0 0 1 1 1 1 0 0 0 0 0
4 3 3 2 3 3 2 1 0 0 0 0 0 0 0 0 0 0 0 0 0 0 0 0 0 0 0 0 0 0 1 0 0 1 2 2 2 1 0 0 0 0 0
3 2 1 1 2 3 2 1 0 0 0 0 0 0 0 0 0 0 0 0 0 0 0 0 0 0 0 0 0 0 0 0 1 2 3 2 2 1 0 0 0 0 0
3 1 0 0 1 2 2 1 0 0 0 1 1 0 0 0 0 0 0 0 0 0 0 0 0 0 0 0 0 0 0 0 1 2 2 2 1 1 0 0 0 0 0
2 1 0 0 0 1 1 0 0 0 1 2 2 1 0 0 0 0 0 0 0 0 0 0 0 0 0 0 0 0 0 0 0 1 1 1 1 1 0 0 0 0 0
1 0 0 0 0 0 0 0 0 0 1 2 3 2 0 0 0 0 0 0 0 0 0 0 0 0 0 0 0 0 0 0 0 0 0 0 0 0 0 0 0 0 0
0 0 0 0 0 0 0 0 0 0 0 1 2 1 0 0 0 0 0 0 0 0 0 0 0 1 0 0 0 0 0 0 0 0 0 0 0 0 0 0 0 0 0
0 0 0 0 0 0 0 0 0 0 0 0 0 0 0 0 0 0 1 2 1 0 0 0 1 1 1 1 0 0 0 0 0 0 0 0 0 0 0 0 0 0 0
0 0 0 0 0 0 0 0 0 0 0 0 0 0 1 0 0 2 4 5 4 2 1 1 2 2 3 2 0 0 0 0 0 0 0 0 0 0 0 0 0 0 0
0 0 0 0 0 1 1 0 0 0 0 0 0 1 1 0 1 3 5 6 6 5 3 2 2 3 3 1 0 0 0 0 0 0 0 0 0 0 0 0 0 0 0
1 0 0 0 1 2 1 0 0 0 0 0 1 1 1 0 1 3 6 7 7 8 7 4 3 3 2 1 0 0 0 0 0 0 0 0 0 0 0 0 0 0 0
2 1 0 0 1 2 1 0 0 0 1 1 2 2 1 1 2 5 7 8 9 10 10 8 4 3 2 1 0 0 0 0 0 0 0 0 0 0 0 0 0 0 0
3 2 1 1 1 2 2 1 1 1 2 2 3 4 3 2 3 6 8 9 10 11 11 9 5 3 2 1 0 0 0 0 0 0 0 0 0 0 0 0 0 0 0
5 5 4 3 2 3 3 3 3 3 2 2 3 3 4 4 5 6 8 9 9 9 9 8 6 4 2 1 0 0 0 0 0 0 0 0 0 0 0 0 0 0 0
7 7 6 5 3 3 3 3 4 4 3 2 2 2 3 3 3 4 5 6 6 6 6 6 6 4 2 1 0 0 0 0 0 0 0 0 0 0 0 0 0 0 0
9 9 8 7 5 3 2 1 3 5 4 3 2 2 2 2 1 1 1 2 2 3 3 4 4 4 3 1 0 0 0 0 0 0 0 0 0 0 0 0 0 0 0
10 9 9 8 7 4 1 0 2 4 5 5 4 3 2 2 1 0 0 0 0 1 2 3 3 3 2 1 0 0 0 0 0 0 0 0 0 0 0 0 0 0 0
10 9 8 8 7 4 1 0 1 2 4 4 5 4 3 2 1 0 0 0 0 0 0 1 2 2 2 1 0 0 0 0 0 0 0 0 0 0 0 0 0 0 0
10 10 8 7 7 5 2 0 1 2 4 4 4 3 2 1 0 0 0 0 0 0 0 0 0 1 1 0 0 0 0 0 0 0 0 0 0 0 0 0 0 0 0
11 10 9 8 8 6 2 0 1 4 6 5 3 1 0 0 0 0 0 0 0 0 0 0 0 0 0 0 0 0 0 0 0 0 0 0 0 0 0 0 0 0 0

GEFSMA_con_prob3kmehi_270.txt.gz
EHI
5 4 5 6 5 4 5 7 8 9 8 7 6 4 2 0 0 1 3 3 2 3 3 3 3 3 3 3 3 3 2 1 0 0 0 0 0 0 0 0 0 0 0
4 5 6 7 6 6 7 8 9 7 6 5 4 4 2 1 0 0 1 2 2 3 3 3 4 4 3 3 3 3 3 1 1 0 0 0 0 0 0 0 0 0 0
5 6 7 7 8 9 9 9 8 6 4 4 4 4 3 3 1 1 1 1 1 2 3 4 5 5 4 4 4 3 3 3 2 1 0 0 0 0 0 0 0 0 0
6 6 7 7 9 10 9 9 7 5 3 4 5 4 4 5 4 3 2 2 2 2 3 4 5 5 5 5 4 4 3 3 3 2 1 0 0 0 0 0 0 0 0
7 7 7 8 9 10 10 8 6 5 4 4 4 4 5 6 6 4 3 3 3 3 3 4 4 5 4 4 4 3 3 4 4 3 2 1 0 0 0 0 0 0 0
7 7 7 8 9 9 9 8 5 4 5 5 4 4 5 6 5 4 3 3 3 4 3 4 4 5 4 4 3 3 4 4 4 3 3 2 1 0 0 0 0 0 0
6 6 6 8 9 8 8 7 5 4 5 6 4 4 4 4 4 4 3 2 2 2 3 3 4 5 6 5 3 3 3 4 3 3 3 3 2 1 0 0 0 0 0
4 4 4 4 5 6 6 6 5 4 4 4 4 3 2 2 2 1 1 1 1 1 1 2 4 6 8 7 5 4 3 3 4 4 4 4 4 2 1 1 0 0 0
4 3 1 1 1 2 4 5 4 3 2 2 2 1 1 1 0 0 0 0 0 0 0 1 3 7 9 9 7 5 3 3 4 4 4 5 5 4 3 2 1 0 0
4 3 1 0 0 1 2 4 4 3 3 2 1 1 2 2 2 1 1 1 0 0 0 0 2 6 9 11 10 6 3 3 4 4 3 4 4 4 3 2 2 1 1
4 2 1 0 0 0 1 3 4 4 3 3 3 3 4 5 4 2 1 1 1 1 1 1 1 3 7 10 10 6 2 2 3 2 1 1 1 1 1 1 1 1 2
4 2 0 0 0 0 0 2 4 3 3 4 4 5 5 6 5 3 1 0 0 1 3 3 2 2 4 6 7 5 2 1 1 1 0 0 0 0 0 0 0 1 1
3 2 1 0 0 0 0 1 2 3 4 6 5 4 4 5 4 3 1 0 0 1 4 5 4 3 4 5 5 4 2 0 0 0 0 0 0 0 0 0 0 0 0
1 1 1 0 1 0 0 0 1 3 5 6 5 4 4 4 3 3 2 1 0 1 2 5 6 4 4 6 5 4 3 1 0 0 0 0 0 0 0 0 0 0 0
2 2 1 1 1 0 0 1 1 3 6 8 6 6 5 4 3 3 3 2 3 2 2 4 6 5 5 6 4 4 5 3 1 0 0 0 0 0 0 0 0 0 0
6 5 4 3 2 1 2 2 3 5 8 9 8 6 5 5 5 5 4 5 7 8 6 4 5 8 9 8 5 5 7 5 2 1 0 0 0 0 0 0 0 0 0
7 6 6 6 5 4 4 5 5 7 9 8 6 5 4 5 6 7 6 8 12 14 12 8 6 10 14 13 9 7 6 4 3 2 0 0 0 0 0 0 0 0 0
7 8 9 10 10 8 8 8 8 8 8 6 4 4 4 6 9 11 12 13 15 15 15 12 10 12 16 15 13 8 4 2 2 1 0 0 0 0 0 0 0 0 0
9 11 14 15 15 13 13 12 11 10 9 7 6 5 5 7 11 14 17 19 17 15 15 15 14 15 16 15 12 8 4 2 1 0 0 0 0 0 0 0 0 0 0
12 14 16 17 17 16 16 14 12 10 10 10 10 9 8 8 11 14 18 19 18 15 15 15 16 17 17 15 12 8 6 5 3 1 1 0 0 0 0 0 0 0 0
15 15 16 15 15 14 12 11 11 10 10 12 13 13 11 10 9 10 11 13 14 14 15 16 16 17 17 16 13 11 9 7 5 3 2 1 0 0 0 0 0 0 0
19 19 18 16 14 11 7 6 6 8 10 13 15 15 13 11 9 7 5 5 8 10 11 14 17 17 17 17 16 12 10 8 6 5 3 1 1 0 0 0 1 0 0
23 22 21 20 17 12 6 3 3 5 10 14 16 16 14 13 11 10 7 5 6 7 8 12 16 16 15 16 15 13 10 8 7 6 4 2 1 0 0 0 0 0 0
25 24 23 22 20 15 7 2 2 4 8 11 13 14 14 13 13 13 12 11 11 10 8 10 13 13 11 11 11 11 10 9 8 8 6 3 2 2 1 1 0 0 0
27 26 24 23 22 17 9 3 3 6 9 11 11 12 12 12 12 11 12 12 12 11 8 7 9 9 7 5 5 8 9 9 9 9 7 5 4 4 4 2 1 0 0
29 27 25 23 21 17 11 4 4 8 11 12 12 12 11 11 10 9 10 11 10 10 8 6 7 6 4 2 2 5 8 8 9 10 9 7 6 5 4 3 2 1 0

GEFSMA_con_prob3kmehi_276.txt.gz
EHI
9 10 11 13 13 12 13 14 12 10 9 9 8 7 6 4 3 3 5 11 16 16 15 12 8 6 4 3 1 1 2 2 1 1 1 0 0 1 0 0 0 0 0
10 11 11 12 13 12 13 13 12 10 9 8 8 8 7 6 5 5 6 8 13 15 14 13 12 9 7 4 2 1 3 3 4 3 2 1 1 1 0 0 0 0 0
11 11 12 12 12 12 11 9 9 9 8 7 8 9 10 9 8 8 8 8 9 12 13 15 17 15 11 7 4 4 5 5 6 5 3 2 1 1 0 0 0 0 0
12 12 12 11 10 10 8 6 6 8 8 7 8 10 12 13 12 10 10 10 10 12 14 17 20 18 13 9 7 7 6 7 6 4 2 2 1 0 0 0 0 0 0
13 14 13 11 11 8 5 4 5 8 8 7 7 8 11 14 15 14 13 14 16 18 19 21 22 17 13 12 13 10 9 8 6 4 2 2 1 0 0 0 0 0 0
13 14 13 13 12 8 5 4 5 7 9 6 5 6 9 15 19 19 17 19 22 26 27 26 23 17 13 14 15 14 13 12 9 6 4 3 2 1 1 0 0 0 0
13 13 13 13 13 9 7 6 6 7 6 4 4 7 9 14 19 20 21 22 24 27 30 30 27 22 16 13 12 13 15 15 12 9 6 5 3 3 2 1 0 0 0
14 13 14 13 11 8 7 8 8 5 3 2 3 6 6 9 12 16 20 23 22 23 26 29 31 30 24 17 11 10 13 15 14 13 9 7 6 5 4 2 1 0 0
13 13 14 12 9 6 5 6 6 4 2 0 2 3 4 5 7 11 15 19 21 22 21 22 27 32 32 26 17 12 11 11 13 14 12 10 8 6 5 3 2 1 0
13 14 15 12 9 5 3 3 4 4 3 1 1 3 5 6 7 8 9 12 17 20 20 17 20 29 34 32 26 18 12 8 9 12 12 12 9 6 4 3 3 2 1
15 16 16 14 10 6 3 2 3 4 4 3 2 3 5 7 7 6 6 8 11 16 19 19 20 26 32 33 30 23 14 8 6 7 9 9 8 5 3 2 2 2 1
18 16 15 15 14 9 5 4 4 5 5 6 6 5 5 5 5 5 5 5 6 10 16 20 24 27 30 31 29 22 14 7 4 4 5 5 5 3 2 2 2 2 1
19 18 17 18 18 14 9 9 10 9 9 11 11 9 7 5 4 4 4 4 3 5 10 16 23 28 30 30 27 19 12 7 2 1 2 3 3 2 1 1 1 1 1
19 22 23 22 21 16 12 13 14 14 15 16 15 13 12 9 6 4 4 4 3 3 5 9 16 23 28 29 24 17 12 7 2 0 1 2 2 1 0 0 0 0 1
21 25 27 27 24 19 16 17 18 19 20 20 19 18 17 14 11 9 8 9 8 7 7 9 12 16 21 23 20 17 14 10 4 1 1 1 1 0 0 0 0 0 0
25 28 30 29 27 24 23 22 21 21 22 23 22 22 21 19 18 17 16 16 16 16 14 12 11 12 14 16 16 17 18 14 8 4 2 0 0 0 0 0 0 0 0
29 29 30 29 28 28 28 26 23 21 22 23 23 24 23 21 22 22 20 20 21 23 20 15 12 12 12 13 16 18 19 17 13 7 2 0 0 0 0 0 0 0 0
35 33 31 31 29 30 31 31 27 21 19 21 22 22 22 22 24 25 22 20 22 24 22 18 15 15 15 15 17 20 19 18 14 7 2 0 0 0 0 0 0 0 0
41 38 36 35 33 31 33 34 32 26 22 22 22 22 23 24 26 27 24 23 23 23 22 20 18 18 18 17 18 20 19 17 12 7 2 1 0 0 0 0 0 0 0
44 41 40 39 36 33 32 33 34 31 28 27 26 27 27 25 25 25 24 25 26 26 24 21 19 19 20 20 20 19 16 14 12 7 4 3 1 1 1 0 0 0 0
44 41 39 39 38 34 28 28 30 30 31 32 32 32 28 24 21 20 20 22 24 25 23 20 18 18 19 19 18 16 13 13 11 9 7 5 4 3 3 1 0 0 0
43 41 38 38 37 31 23 19 20 25 30 34 36 34 26 19 17 15 14 13 13 16 17 17 16 16 15 15 15 14 13 13 12 11 9 6 5 5 4 2 0 0 0
40 39 39 38 35 28 19 11 11 18 26 32 38 38 29 19 15 15 14 10 9 9 10 11 13 13 13 13 13 14 13 12 11 10 9 8 7 6 3 1 0 0 0
36 36 37 38 36 28 18 8 7 14 22 29 35 37 33 24 18 16 16 15 15 13 8 6 10 13 13 13 13 13 12 10 9 9 10 11 11 7 3 1 0 0 0
33 32 34 37 37 31 19 7 6 15 24 29 31 31 29 24 17 14 15 19 20 17 11 7 7 10 10 9 9 9 10 9 7 8 11 13 12 10 7 3 1 0 0
31 31 33 36 37 33 21 8 7 18 27 30 29 26 23 18 14 11 14 20 21 18 13 9 6 6 7 6 6 7 8 8 6 7 9 12 11 10 9 5 2 1 1

GEFSMA_con_prob3kmehi_282.txt.gz
EHI
3 2 1 2 2 1 1 1 2 1 1 1 1 2 2 2 1 1 1 5 13 16 13 12 14 13 11 8 5 5 6 6 3 1 0 0 0 0 0 0 0 0 0
3 3 3 3 3 2 2 3 3 2 2 1 1 2 3 3 2 2 1 3 9 13 11 11 13 12 10 7 6 6 7 7 6 3 1 1 0 0 0 0 0 0 0
3 3 3 2 2 1 1 3 3 1 1 1 1 1 2 3 3 2 1 1 4 7 8 9 12 12 9 7 7 8 8 8 7 6 4 2 1 0 0 0 0 0 0
4 3 2 1 1 0 1 2 2 0 0 0 0 1 1 2 2 2 2 1 1 2 4 7 12 13 12 10 10 10 10 9 8 7 6 4 2 0 0 0 0 0 0
5 4 2 1 1 1 1 2 2 1 0 0 0 0 0 0 1 2 3 2 1 1 1 5 10 14 16 16 16 14 13 12 11 10 7 5 2 1 0 0 0 0 0
6 5 3 2 2 2 2 2 2 1 0 0 0 0 0 0 0 1 2 2 2 2 1 3 6 10 15 19 20 19 17 16 14 13 9 5 3 2 0 0 0 0 0
7 6 4 2 1 1 1 1 1 0 0 0 0 0 0 0 0 0 1 1 2 3 3 3 3 4 8 14 18 21 22 21 19 15 11 7 4 2 1 1 0 0 0
8 7 4 1 0 0 0 0 0 0 0 0 0 0 0 0 0 0 0 0 2 3 4 5 4 2 2 5 9 16 21 22 20 16 12 10 6 4 3 3 1 0 0
10 7 4 1 0 0 0 0 0 0 1 1 1 1 1 1 0 0 0 1 2 3 3 5 7 5 2 2 3 8 12 16 16 14 13 13 11 8 7 5 3 1 0
8 5 2 1 0 0 0 0 0 0 1 2 2 2 2 2 1 1 0 1 1 1 2 4 8 8 5 3 3 4 5 7 8 9 11 14 15 13 11 9 5 1 0
5 3 1 0 0 0 0 0 0 0 1 2 3 3 3 3 3 2 1 0 0 0 0 2 5 6 6 5 4 5 5 4 3 4 7 11 14 15 15 13 9 4 2
4 1 0 0 0 0 0 0 0 0 0 1 3 3 3 3 3 3 2 1 0 0 0 0 1 2 3 4 4 5 7 6 3 1 3 6 10 12 14 15 13 8 5
4 2 1 0 0 0 0 0 0 0 0 1 3 4 3 3 4 4 3 2 1 0 0 0 0 0 1 1 2 3 6 7 4 1 0 2 4 7 9 11 11 8 7
5 4 3 1 1 1 0 0 0 0 1 3 4 5 4 4 5 5 4 3 2 0 0 0 0 0 0 0 0 1 3 5 3 1 0 0 1 2 4 4 4 4 4
5 6 4 3 2 2 2 2 1 1 2 4 5 5 5 6 6 6 6 5 4 1 0 0 0 0 0 0 0 0 1 2 1 0 0 0 0 0 1 1 0 1 1
6 6 5 4 4 5 6 6 4 4 4 5 6 6 7 7 7 6 6 5 4 3 2 1 0 0 0 0 0 0 0 1 0 0 0 0 0 0 0 0 0 0 0
7 6 6 5 6 8 10 9 8 7 7 7 7 7 7 7 8 7 5 4 3 4 4 3 1 0 0 0 1 1 1 1 1 0 0 0 0 0 0 0 0 0 0
7 6 7 8 9 10 12 11 10 10 9 8 7 7 7 8 8 7 5 3 3 4 5 4 2 1 1 1 1 2 2 2 1 0 0 0 0 0 0 0 0 0 0
8 7 7 9 11 13 13 12 11 11 11 10 8 7 7 7 7 7 5 4 3 3 4 4 2 2 2 1 2 3 3 2 1 1 0 0 0 0 0 0 0 0 0
11 9 8 10 13 14 14 13 12 13 13 12 10 8 7 7 7 7 6 4 3 3 3 3 3 3 3 3 4 4 3 2 2 2 1 0 0 0 0 0 0 0 0
12 10 9 10 12 12 11 11 12 14 15 14 12 10 8 7 7 7 6 4 4 5 5 4 4 3 4 4 5 4 2 2 2 2 1 0 0 0 0 0 0 0 0
10 9 9 9 9 8 6 7 8 11 14 14 12 10 8 7 6 6 5 4 4 5 6 5 4 3 3 3 3 2 2 2 2 2 2 1 1 0 0 0 0 0 0
10 10 10 10 10 8 5 2 4 7 9 10 10 10 10 9 7 6 5 4 3 3 4 4 3 2 1 1 1 0 1 2 3 3 3 3 2 1 0 0 0 0 0
11 12 12 13 13 11 6 1 1 3 4 6 8 9 11 11 8 6 5 3 2 1 2 2 2 1 0 0 0 0 0 1 2 3 3 4 3 1 0 0 0 0 0
13 13 13 14 15 13 7 2 1 1 1 2 4 6 9 9 5 3 3 3 2 1 0 1 1 1 0 0 0 0 1 2 3 3 3 3 2 1 0 0 0 0 0
14 13 13 14 14 13 8 3 1 1 1 1 2 4 6 5 2 1 3 4 2 1 0 0 0 0 0 0 0 0 1 2 3 3 3 3 2 1 0 0 0 0 0